Temperature
26 25 24 25 26 26 26 25 25 25 26 25 24 24 24 24 23 23 23 22 22 21 20 19 19 18 18 18 18 17 17 17 17 16 16 16 16 15 15 15 15 15 15 15
26 25 26 26 26 26 26 25 25 25 26 25 24 24 24 24 23 23 23 22 22 21 20 19 18 18 18 17 17 17 17 16 16 16 16 16 15 15 15 15 15 15 14 14
25 26 26 26 26 25 25 25 25 25 25 25 24 23 23 24 24 23 22 22 21 20 19 18 18 17 17 17 17 16 16 16 16 16 16 15 15 15 15 14 14 14 14 14
25 26 26 25 25 25 25 25 25 25 24 23 24 22 23 23 22 22 22 21 21 20 19 18 17 17 17 16 16 16 16 16 16 15 15 15 15 14 14 14 14 14 14 14
25 25 25 24 25 25 25 25 25 24 24 23 24 23 23 23 22 22 22 21 20 19 19 18 17 17 16 16 16 16 16 15 15 15 15 15 14 14 14 14 14 14 14 14
25 26 25 25 25 25 25 25 24 24 23 22 24 24 22 23 22 22 22 21 20 19 18 17 17 16 16 16 16 15 15 15 15 15 14 14 14 14 14 14 14 14 13 13
24 25 25 25 24 25 24 23 22 22 21 22 24 24 22 23 23 23 22 21 20 19 18 17 16 16 16 16 15 15 15 14 14 14 14 14 14 14 13 13 13 13 13 13
24 23 24 24 24 23 24 24 22 21 22 23 24 23 22 23 23 22 21 20 19 18 18 17 16 16 15 15 15 15 14 14 14 14 13 13 13 13 13 13 13 13 13 13
23 23 24 24 24 24 23 23 24 22 23 22 23 23 22 22 22 21 21 20 19 18 17 17 16 15 15 15 14 14 14 14 14 13 13 13 13 13 13 13 13 13 13 12
23 22 24 24 24 24 24 23 23 22 21 21 23 23 21 21 21 21 20 19 18 18 17 16 16 15 15 14 14 14 14 13 13 13 13 13 13 13 13 13 13 12 12 12
23 22 23 23 23 23 23 23 22 22 22 21 21 21 23 21 21 20 20 19 18 17 17 16 15 15 14 14 14 14 13 13 13 13 13 13 12 12 12 12 12 12 12 12
23 22 22 23 24 24 23 23 22 21 21 21 20 20 23 22 21 21 20 19 18 17 17 16 15 15 14 14 13 13 13 13 13 13 12 12 12 12 12 12 12 12 12 12
21 21 21 21 22 22 22 22 22 22 21 21 20 20 22 21 21 20 19 19 18 17 16 16 15 15 14 14 13 13 13 13 12 12 12 12 12 12 12 12 12 12 11 11
20 21 21 20 21 22 22 22 22 21 20 20 21 21 21 21 20 20 19 18 17 17 16 15 15 14 14 14 13 13 12 12 12 12 12 12 12 12 11 11 11 11 11 11
21 20 21 22 22 22 21 21 21 21 21 20 21 21 21 21 20 20 19 18 17 16 16 15 15 14 14 13 13 13 12 12 12 11 11 11 11 11 11 11 11 11 11 11
21 20 21 21 22 21 21 21 21 21 21 21 20 20 21 21 20 19 19 18 17 16 15 15 14 14 13 13 13 12 12 11 11 11 11 11 11 11 11 10 10 10 10 10
20 20 19 20 21 21 20 21 21 21 21 20 20 20 20 20 19 19 18 17 16 16 15 15 14 14 13 13 12 12 11 11 11 10 10 10 10 10 10 10 10 10 10 10
19 19 19 19 19 18 20 21 21 20 20 20 20 20 20 19 19 18 17 17 16 15 15 14 14 13 13 12 12 12 11 11 11 10 10 10 10 10 10 9 9 9 9 9
20 19 18 18 18 19 20 21 20 19 19 20 20 19 19 18 18 17 17 16 15 15 14 14 13 13 12 12 12 11 11 11 10 10 9 9 9 9 9 9 9 9 9 9
19 19 18 18 17 17 19 20 20 19 18 19 19 19 18 18 16 16 16 15 15 14 14 13 13 12 12 11 11 11 11 10 10 9 9 9 9 9 9 8 8 8 8 9
17 17 17 17 17 18 19 19 19 17 17 18 18 18 17 17 16 16 15 15 14 14 13 13 12 12 11 11 11 10 10 10 10 9 9 9 8 8 8 8 8 8 8 8
18 17 17 17 16 17 18 18 18 17 18 17 17 17 16 16 15 15 14 14 13 13 12 12 12 11 11 10 10 10 10 9 9 9 9 8 8 8 8 7 7 7 7 8
18 18 17 17 17 17 18 18 17 17 17 16 16 16 15 15 14 14 13 13 12 12 12 11 11 11 10 10 10 10 9 9 9 8 8 8 7 7 7 7 7 7 7 7
18 19 18 17 17 18 17 17 16 16 15 15 15 15 14 14 13 13 12 12 12 11 11 11 10 10 10 9 9 9 9 8 8 8 8 7 7 7 7 7 7 7 6 6
17 17 17 16 17 17 17 16 16 15 15 15 14 14 14 13 13 12 12 11 11 11 10 10 10 10 9 9 9 9 8 8 8 7 7 7 7 7 7 6 6 6 6 6
16 16 15 15 16 16 16 15 15 14 14 14 13 13 13 13 12 12 11 11 10 10 10 9 9 9 9 8 8 8 8 8 7 7 7 7 6 6 6 6 6 6 5 5
Wind_Speed
8 7 7 7 7 7 6 6 6 2 3 3 4 4 5 5 5 4 4 5 4 5 5 5 5 5 4 4 5 5 4 3 4 2 2 2 2 2 2 2 3 4 3 4
7 8 6 4 5 6 7 7 6 3 2 3 4 4 3 5 6 4 3 4 5 5 6 6 5 4 5 4 4 5 5 4 4 3 2 2 2 2 3 3 3 4 4 4
8 2 2 5 7 7 8 6 5 4 2 5 5 5 6 6 5 5 4 3 5 6 6 6 5 5 5 4 4 4 5 4 4 4 3 3 2 2 3 2 2 3 5 5
5 3 3 6 7 7 6 4 6 6 6 5 7 5 6 7 7 6 5 4 5 5 6 5 5 5 5 5 4 4 5 4 4 4 3 3 3 2 2 1 2 2 4 4
5 3 4 5 4 5 5 5 7 9 9 9 10 7 4 8 8 7 6 5 5 6 6 6 5 5 5 5 5 5 5 5 4 4 4 3 3 2 1 2 2 2 2 3
7 4 3 4 4 4 6 7 10 9 8 9 9 7 3 5 7 8 8 7 5 6 6 6 6 6 6 5 4 4 4 5 4 4 3 3 3 2 2 2 2 1 1 1
8 8 5 3 6 5 6 6 4 4 6 5 4 3 3 6 7 8 8 7 6 5 6 6 6 5 5 5 4 4 4 4 4 3 2 2 2 2 2 2 1 1 1 1
7 6 6 3 4 5 7 7 5 4 4 3 2 2 6 9 9 9 8 7 6 5 5 5 6 4 4 4 3 3 3 3 3 3 2 2 2 1 1 1 1 0 0 1
6 1 3 3 3 5 6 6 7 7 10 7 4 4 6 8 9 8 7 6 6 5 4 5 6 5 4 4 3 2 2 3 3 2 2 3 2 1 1 0 1 0 0 1
7 6 3 4 4 6 7 7 5 4 4 5 4 1 4 8 7 7 6 5 5 5 4 4 5 4 4 3 2 2 2 2 2 2 1 2 2 1 1 0 1 1 1 0
8 8 5 5 6 5 6 6 5 5 5 5 4 2 4 6 6 6 5 5 5 5 4 4 4 4 3 3 3 2 2 2 2 2 2 1 1 2 1 1 1 1 0 0
4 6 8 6 3 3 4 5 6 5 5 5 5 1 5 7 6 6 6 5 5 5 4 4 4 3 3 2 2 2 1 2 2 1 1 1 1 1 1 1 1 1 1 1
5 5 6 4 3 3 4 6 7 7 7 6 6 1 4 4 4 5 5 5 5 5 4 4 3 2 2 2 2 2 1 1 1 0 1 1 1 2 2 2 2 1 0 1
3 6 8 8 7 4 5 7 7 7 6 7 7 4 2 2 2 3 4 5 5 4 4 3 2 2 1 1 1 1 1 1 0 0 1 2 1 1 2 2 2 2 1 1
5 8 10 10 10 9 9 9 9 10 10 10 9 8 5 2 0 2 3 4 4 4 3 3 2 2 1 0 1 1 1 1 1 1 1 2 2 1 2 2 2 2 2 2
6 8 10 11 11 10 12 11 10 10 10 11 11 9 4 2 1 1 1 2 2 2 3 3 3 2 1 1 0 1 1 0 1 1 1 2 2 2 2 2 2 2 2 2
5 8 9 9 9 10 11 8 8 8 7 7 8 5 3 3 2 0 0 0 2 2 2 2 2 2 2 1 1 1 1 1 0 1 1 1 2 3 2 2 2 2 2 2
8 9 6 7 8 9 3 0 1 2 4 5 5 4 3 2 2 2 2 1 1 1 1 2 2 2 1 1 1 1 1 1 0 1 1 1 2 2 3 2 2 1 2 2
9 8 6 6 7 8 5 1 2 3 4 4 3 3 3 3 2 0 1 1 1 1 1 1 1 1 1 1 1 1 1 0 0 1 1 1 2 2 3 3 3 2 2 2
7 8 7 7 7 5 1 3 2 3 3 2 3 3 3 2 3 1 2 2 2 2 1 1 1 1 1 0 1 1 0 0 0 0 1 1 2 2 2 3 3 3 2 2
6 6 8 9 8 5 2 2 1 2 1 3 4 3 3 3 2 2 3 2 2 1 1 1 0 1 1 1 1 1 0 1 1 0 0 0 1 2 2 2 3 3 2 2
5 4 6 7 7 5 2 1 1 2 4 5 5 5 4 3 3 3 3 2 1 1 0 0 0 1 1 1 1 1 0 0 1 0 0 0 1 2 1 1 2 2 2 2
6 4 2 3 2 0 1 1 3 4 5 5 5 4 4 3 2 2 2 1 1 0 1 1 1 1 1 1 1 1 0 0 0 1 1 1 1 0 0 0 1 2 2 1
5 3 4 5 4 4 2 2 3 3 5 5 5 5 5 3 2 2 2 2 1 1 1 1 1 1 1 2 1 1 1 1 1 2 2 2 1 1 1 0 0 1 1 2
6 5 6 7 6 5 3 2 3 3 4 4 4 4 4 3 3 3 3 2 1 1 1 1 1 1 1 1 1 1 1 1 2 2 2 2 1 1 1 0 0 0 1 1
7 7 7 6 5 5 4 4 4 4 4 4 4 4 4 3 3 3 2 1 1 1 1 1 1 2 1 1 1 1 1 1 2 2 2 1 0 1 1 1 0 1 1 1
Wind_Direction
213 221 228 236 247 257 276 278 271 250 171 215 230 223 175 175 188 194 176 154 139 123 105 92 90 90 80 62 59 65 63 72 86 83 87 86 79 78 79 59 52 53 60 73
221 228 238 258 262 266 272 272 272 250 173 246 240 226 194 183 185 185 180 146 133 116 102 86 79 89 78 59 52 70 60 62 73 66 76 90 93 88 88 64 49 43 48 60
237 227 230 253 260 259 265 276 283 290 272 245 250 239 209 191 172 155 137 118 108 109 107 102 87 77 82 72 52 67 66 62 70 72 69 71 71 69 72 65 56 42 46 49
251 242 252 256 264 272 272 306 303 290 279 264 233 247 205 177 164 160 145 125 110 105 104 97 90 91 86 69 46 57 67 64 65 84 80 84 89 85 83 78 64 59 51 45
251 242 250 264 287 296 299 316 289 277 272 274 256 253 197 167 171 161 144 132 116 110 106 102 87 90 94 82 60 50 55 61 58 67 88 86 80 82 82 76 74 63 63 48
266 252 260 278 285 274 291 282 266 255 264 260 250 248 184 169 161 150 138 129 119 112 108 104 93 86 89 86 75 59 62 57 58 61 77 91 84 75 76 71 65 48 65 59
236 223 205 254 274 249 258 276 277 237 223 241 236 235 120 107 119 123 122 121 119 111 106 103 99 92 90 92 81 70 67 67 55 61 67 78 87 77 83 74 65 53 44 5
258 222 191 200 255 273 263 257 273 293 294 313 251 190 112 105 96 105 112 111 109 109 110 110 109 101 94 91 83 79 72 67 57 47 43 60 73 67 71 84 75 45 224 237
309 314 152 182 247 274 276 269 275 286 292 287 253 128 121 118 116 113 115 113 111 108 113 115 112 103 94 91 78 81 84 70 57 45 39 43 54 38 57 82 91 338 291 271
296 292 229 186 215 234 265 295 294 273 288 285 279 215 153 149 144 138 130 126 121 117 114 113 110 106 99 99 94 80 89 84 58 35 25 45 37 357 305 116 128 252 238 238
285 281 254 211 215 236 229 248 264 277 274 287 301 42 65 130 131 133 133 129 127 127 128 123 118 114 105 96 92 74 70 65 49 20 6 46 45 359 3 359 13 310 307 355
281 286 274 254 215 212 248 264 268 268 281 289 289 346 72 91 103 119 127 129 130 134 135 129 122 123 116 105 100 78 50 56 56 6 344 28 30 342 360 348 314 299 314 290
324 280 273 239 195 202 239 249 260 271 274 270 272 227 116 103 103 118 134 135 131 130 128 127 126 131 133 131 133 119 100 75 70 337 333 352 18 356 347 338 327 314 315 282
293 273 275 279 302 299 266 258 255 258 263 269 272 277 206 164 151 146 147 140 133 138 141 138 136 139 131 131 144 128 96 81 28 24 354 349 343 350 346 332 336 328 324 347
254 268 277 284 290 290 284 278 265 254 257 265 277 291 296 316 97 135 135 137 144 157 153 151 159 160 161 176 178 120 113 48 1 54 16 336 331 331 339 345 344 350 346 344
251 268 276 278 276 276 276 271 261 261 264 267 274 283 314 327 16 71 111 143 155 163 170 161 173 177 180 180 142 122 113 94 18 38 26 350 329 342 344 338 343 349 349 341
269 271 278 276 281 281 269 266 256 253 265 276 275 286 325 316 321 334 95 129 189 189 175 172 179 184 192 193 187 170 172 187 120 47 14 7 350 348 341 331 342 339 342 334
270 278 273 275 279 264 271 302 300 278 278 283 290 311 321 334 28 70 83 54 179 173 158 163 167 181 179 178 178 182 185 162 134 73 6 7 355 345 340 333 328 338 331 318
245 257 265 265 268 272 265 272 315 292 288 305 309 331 3 14 353 145 76 48 27 69 107 139 168 157 136 163 217 194 183 170 147 62 9 352 351 342 344 342 336 335 314 314
233 241 250 258 264 269 339 47 10 295 260 24 1 340 347 331 298 300 40 31 31 46 47 68 126 118 129 172 245 234 208 220 271 31 1 6 350 339 343 342 339 328 314 307
215 226 236 250 257 264 3 29 346 275 11 25 2 347 333 312 327 360 6 1 38 48 38 53 123 137 137 180 247 266 233 294 330 359 359 20 327 330 353 345 334 328 327 324
240 232 233 242 245 247 42 16 309 359 8 357 357 355 349 349 17 23 15 11 39 60 68 99 76 109 148 177 224 262 237 23 13 4 264 278 290 313 341 348 333 332 318 305
240 244 267 258 248 216 308 303 9 10 352 351 346 349 342 330 347 349 346 342 313 248 224 169 178 193 191 194 213 245 210 129 318 255 243 256 253 249 280 316 324 328 325 337
270 270 265 270 265 280 295 7 14 352 335 343 343 340 333 321 315 307 291 282 269 254 280 261 203 213 217 202 214 213 173 235 256 251 251 245 244 232 218 198 330 354 344 343
290 291 273 267 269 280 270 308 316 323 323 327 326 324 318 304 291 283 275 263 256 258 226 260 244 227 234 223 199 176 171 222 257 258 259 256 221 219 179 158 289 216 274 250
268 271 262 267 294 299 311 339 335 324 315 308 307 310 306 297 289 288 285 275 266 251 241 237 256 255 249 260 248 193 181 211 249 265 272 265 224 191 180 182 355 13 256 300
Height
1496 1499 1500 1497 1495 1495 1495 1498 1500 1497 1494 1499 1503 1503 1503 1505 1507 1509 1510 1512 1514 1516 1518 1518 1519 1519 1519 1520 1520 1521 1521 1522 1522 1523 1523 1523 1524 1525 1525 1526 1526 1526 1527 1527
1495 1497 1493 1492 1492 1493 1495 1499 1499 1495 1492 1497 1500 1502 1501 1503 1505 1507 1509 1511 1513 1515 1517 1518 1518 1519 1519 1519 1520 1520 1520 1521 1521 1522 1523 1523 1524 1524 1525 1525 1526 1526 1526 1527
1494 1493 1491 1492 1493 1495 1496 1498 1498 1498 1496 1495 1500 1505 1502 1500 1503 1506 1508 1510 1512 1514 1516 1517 1518 1518 1519 1519 1520 1520 1519 1520 1520 1521 1521 1522 1523 1524 1524 1525 1525 1525 1526 1526
1491 1489 1491 1493 1493 1494 1498 1493 1495 1497 1502 1503 1500 1513 1503 1500 1502 1504 1507 1510 1512 1514 1516 1517 1517 1518 1518 1519 1519 1519 1519 1519 1519 1520 1520 1521 1522 1523 1523 1524 1524 1524 1525 1525
1492 1490 1492 1495 1494 1494 1496 1493 1495 1496 1499 1503 1497 1504 1502 1497 1503 1503 1506 1509 1512 1514 1515 1516 1517 1518 1518 1518 1519 1519 1518 1518 1518 1519 1520 1520 1521 1522 1523 1523 1523 1524 1524 1524
1490 1489 1491 1493 1493 1493 1494 1495 1494 1495 1499 1511 1497 1500 1504 1497 1498 1500 1504 1508 1511 1513 1515 1516 1517 1517 1518 1518 1518 1518 1518 1518 1518 1518 1519 1520 1520 1521 1522 1522 1522 1522 1523 1523
1493 1489 1490 1492 1494 1493 1494 1502 1511 1512 1514 1506 1488 1494 1501 1493 1493 1498 1503 1507 1510 1513 1514 1515 1516 1517 1517 1518 1518 1518 1518 1517 1517 1518 1518 1519 1519 1520 1520 1521 1521 1521 1521 1522
1496 1496 1489 1491 1495 1497 1495 1499 1514 1521 1513 1501 1491 1497 1498 1492 1495 1499 1503 1507 1510 1512 1513 1514 1515 1516 1517 1517 1518 1518 1518 1518 1517 1517 1518 1518 1519 1519 1519 1520 1520 1520 1520 1520
1497 1497 1489 1490 1491 1494 1497 1496 1494 1504 1502 1505 1496 1495 1496 1494 1497 1500 1504 1507 1509 1512 1513 1514 1515 1516 1517 1517 1517 1517 1518 1518 1517 1517 1517 1518 1518 1518 1518 1518 1518 1518 1519 1519
1495 1500 1491 1489 1492 1493 1494 1495 1499 1505 1513 1514 1501 1496 1502 1499 1499 1500 1504 1507 1509 1512 1513 1514 1514 1515 1516 1516 1517 1517 1517 1517 1517 1517 1517 1517 1517 1517 1516 1517 1517 1517 1517 1517
1495 1499 1495 1491 1494 1495 1496 1498 1499 1501 1502 1514 1516 1509 1492 1494 1496 1500 1503 1506 1509 1511 1512 1513 1514 1515 1515 1516 1516 1516 1516 1516 1516 1515 1515 1515 1515 1515 1515 1515 1515 1515 1515 1515
1495 1499 1498 1491 1487 1487 1491 1495 1499 1510 1508 1504 1511 1511 1491 1493 1496 1499 1502 1505 1508 1510 1511 1512 1513 1514 1515 1515 1515 1515 1515 1515 1514 1514 1514 1514 1514 1514 1514 1513 1513 1513 1513 1513
1498 1501 1505 1501 1499 1493 1493 1493 1495 1498 1503 1506 1511 1509 1493 1494 1496 1499 1501 1504 1506 1509 1510 1511 1512 1513 1513 1514 1514 1514 1514 1513 1513 1512 1512 1512 1512 1512 1511 1511 1511 1511 1511 1511
1501 1500 1504 1508 1500 1494 1495 1494 1493 1498 1506 1505 1502 1500 1495 1495 1496 1498 1500 1502 1505 1507 1509 1510 1511 1511 1512 1512 1512 1512 1512 1512 1511 1511 1510 1510 1510 1510 1509 1508 1508 1508 1508 1508
1499 1500 1496 1493 1490 1490 1492 1493 1492 1495 1496 1501 1497 1495 1494 1493 1495 1496 1498 1501 1503 1505 1507 1508 1509 1510 1510 1511 1511 1511 1510 1510 1510 1509 1508 1508 1508 1508 1507 1507 1506 1505 1506 1506
1497 1498 1496 1495 1489 1489 1491 1489 1490 1491 1491 1493 1493 1494 1490 1492 1493 1495 1497 1499 1501 1503 1505 1506 1507 1508 1508 1509 1509 1509 1508 1508 1508 1508 1507 1506 1506 1505 1505 1504 1504 1503 1503 1503
1496 1498 1500 1499 1491 1490 1493 1486 1486 1488 1487 1489 1493 1492 1490 1491 1493 1494 1496 1498 1500 1501 1503 1504 1505 1505 1506 1506 1507 1507 1506 1506 1506 1505 1505 1504 1504 1503 1502 1502 1501 1501 1500 1500
1498 1498 1499 1499 1498 1505 1490 1481 1482 1485 1486 1487 1487 1488 1489 1491 1492 1494 1496 1497 1498 1499 1500 1501 1502 1503 1504 1504 1505 1505 1504 1504 1504 1503 1503 1502 1502 1501 1500 1500 1499 1499 1498 1498
1495 1498 1500 1500 1503 1496 1487 1482 1483 1486 1488 1486 1487 1487 1489 1490 1491 1493 1495 1496 1497 1498 1499 1499 1500 1501 1501 1502 1502 1502 1502 1502 1501 1501 1500 1500 1499 1498 1498 1497 1497 1496 1496 1496
1492 1494 1499 1499 1504 1502 1491 1484 1483 1486 1491 1487 1487 1488 1489 1490 1493 1494 1494 1495 1495 1496 1496 1497 1497 1498 1499 1499 1499 1500 1500 1499 1499 1498 1498 1497 1497 1496 1496 1495 1495 1495 1494 1493
1494 1495 1499 1500 1501 1493 1487 1484 1485 1495 1494 1488 1488 1489 1490 1490 1492 1493 1492 1493 1493 1493 1494 1494 1495 1495 1496 1496 1497 1497 1497 1497 1496 1496 1496 1495 1495 1494 1494 1493 1493 1492 1492 1491
1491 1494 1495 1495 1499 1497 1486 1485 1488 1490 1488 1488 1488 1489 1489 1490 1490 1490 1490 1491 1490 1491 1491 1492 1492 1493 1493 1494 1494 1494 1494 1494 1494 1493 1493 1493 1492 1492 1491 1491 1490 1490 1489 1489
1485 1486 1487 1489 1492 1487 1485 1486 1487 1487 1488 1488 1488 1488 1488 1488 1489 1489 1489 1489 1488 1488 1489 1489 1489 1490 1490 1491 1491 1491 1490 1490 1490 1490 1490 1490 1490 1489 1489 1489 1488 1487 1487 1486
1482 1481 1483 1485 1484 1484 1484 1485 1486 1487 1487 1487 1487 1487 1487 1487 1487 1487 1487 1487 1486 1486 1486 1486 1486 1486 1487 1488 1488 1488 1487 1487 1487 1487 1487 1487 1487 1487 1486 1486 1485 1485 1484 1484
1483 1482 1483 1483 1483 1484 1484 1485 1485 1485 1486 1486 1486 1486 1485 1485 1484 1484 1484 1484 1483 1483 1483 1483 1483 1483 1484 1484 1484 1484 1485 1484 1484 1484 1485 1485 1484 1484 1484 1483 1483 1482 1482 1481
1482 1483 1483 1483 1482 1482 1482 1483 1483 1483 1483 1483 1483 1483 1483 1482 1482 1481 1481 1481 1480 1480 1480 1479 1480 1480 1481 1481 1481 1481 1481 1481 1481 1481 1482 1481 1481 1481 1481 1480 1480 1479 1479 1479